Weather History for Huron, SD

Change the Weather History Date:

Thursday, February 28, 2013

  Actual Average Record
Temperature  
Mean Temperature 23 °F 26 °F  
Max Temperature 26 °F 36 °F 63 °F (1905)
Min Temperature 19 °F 16 °F -39 °F (1962)
Degree Days  
Heating Degree Days 42 39  
Month to date heating degree days 1259 1215  
Since 1 July heating degree days 5826 5832  
Cooling Degree Days 0 0  
Month to date cooling degree days 0 0  
Year to date cooling degree days 0 0  
Moisture  
Dew Point 18 °F    
Average Humidity 84    
Maximum Humidity 91    
Minimum Humidity 77    
Precipitation  
Precipitation 0.00 in 0.03 in 1.20 in (1930)
Month to date precipitation 1.10 0.60  
Year to date precipitation 1.38 1.10  
Snow  
Snow 0.00 in 0.30 in 10.10 in (2007)
Month to date snowfall 13.8 7.4  
Since 1 July snowfall 33.2 31.0  
Snow Depth 6.00 in    
Sea Level Pressure  
Sea Level Pressure 30.30 in    
Wind  
Wind Speed 12 mph (NNW)    
Max Wind Speed 21 mph    
Max Gust Speed 26 mph    
Visibility 10 miles    
Events      
T = Trace of Precipitation, MM = Missing Value Source: NWS Daily Summary

Daily Weather History Graph

Daily Weather History Graph

Search for Another Location

Airport:

Trip Planner

Search our weather history database for the weather conditions in past years. The results will help you decide how hot, cold, wet, or windy it might be!

Date:

Astronomy

Feb. 28, 2013 Rise Set
Actual Time 7:11 AM CST 6:20 PM CST
Civil Twilight 6:42 AM CST 6:49 PM CST
Nautical Twilight 6:08 AM CST 7:22 PM CST
Astronomical Twilight 5:35 AM CST 7:56 PM CST
Moon 9:59 PM CST (2/28) 8:12 AM CST (2/28)
Length of Visible Light 12h 07m
Length of Day
11h 08m
Waning Gibbous, 90% of the Moon is Illuminated
Feb 28
Waning Gibbous
Mar 4
Last Quarter
Mar 11
New
Mar 19
First Quarter
Mar 27
Full

Hourly Weather History & Observations

Time (CST) Temp. Windchill Dew Point Humidity Pressure Visibility Wind Dir Wind Speed Gust Speed Precip Events Conditions
12:55 AM 24.1 °F 11.0 °F 21.0 °F 88% 30.25 in 10.0 mi North 16.1 mph - N/A   Overcast
1:55 AM 24.1 °F 12.5 °F 19.9 °F 84% 30.26 in 10.0 mi NNW 12.7 mph - N/A   Overcast
2:55 AM 21.9 °F 7.8 °F 18.0 °F 85% 30.26 in 10.0 mi NNW 17.3 mph - N/A   Overcast
3:55 AM 21.0 °F 8.1 °F 17.1 °F 85% 30.26 in 10.0 mi NNW 13.8 mph - N/A   Overcast
4:55 AM 19.9 °F 6.7 °F 17.1 °F 89% 30.27 in 10.0 mi NNW 13.8 mph - N/A   Overcast
5:55 AM 19.9 °F 6.7 °F 17.1 °F 89% 30.28 in 10.0 mi NNW 13.8 mph - N/A   Overcast
6:55 AM 19.0 °F 6.8 °F 16.0 °F 88% 30.30 in 10.0 mi North 11.5 mph - N/A   Overcast
7:55 AM 19.0 °F 5.6 °F 16.0 °F 88% 30.30 in 10.0 mi North 13.8 mph - N/A   Overcast
8:55 AM 19.0 °F 6.8 °F 15.1 °F 85% 30.33 in 10.0 mi NW 11.5 mph - N/A   Overcast
9:15 AM 19.4 °F 7.2 °F 15.8 °F 86% 30.27 in 10.0 mi NNW 11.5 mph - N/A   Overcast
9:55 AM 19.0 °F 6.1 °F 15.1 °F 85% 30.33 in 10.0 mi NNW 12.7 mph - N/A   Overcast
10:55 AM 21.0 °F 9.3 °F 16.0 °F 81% 30.33 in 10.0 mi NNW 11.5 mph - N/A   Overcast
11:55 AM 21.9 °F 10.4 °F 17.1 °F 82% 30.33 in 10.0 mi North 11.5 mph - N/A   Overcast
12:55 PM 23.0 °F 11.7 °F 18.0 °F 81% 30.32 in 10.0 mi North 11.5 mph - N/A   Overcast
1:55 PM 25.0 °F 13.1 °F 19.0 °F 78% 30.31 in 10.0 mi North 13.8 mph - N/A   Overcast
2:30 PM 24.8 °F 14.0 °F 19.4 °F 80% 30.24 in 10.0 mi NNW 11.5 mph - N/A   Overcast
2:55 PM 26.1 °F 16.2 °F 21.0 °F 81% 30.29 in 10.0 mi NNW 10.4 mph - N/A   Overcast
3:18 PM 26.6 °F 15.7 °F 21.2 °F 80% 30.23 in 10.0 mi North 12.7 mph - N/A   Overcast
3:55 PM 26.1 °F 15.6 °F 21.0 °F 81% 30.30 in 10.0 mi North 11.5 mph - N/A   Overcast
4:55 PM 25.0 °F 13.6 °F 19.9 °F 81% 30.31 in 10.0 mi North 12.7 mph - N/A   Overcast
5:55 PM 25.0 °F 15.5 °F 19.9 °F 81% 30.32 in 10.0 mi North 9.2 mph - N/A   Overcast
6:48 PM 24.8 °F 15.3 °F 19.4 °F 80% 30.26 in 10.0 mi North 9.2 mph - N/A   Overcast
6:55 PM 25.0 °F 14.2 °F 19.9 °F 81% 30.33 in 10.0 mi NNW 11.5 mph - N/A   Overcast
7:55 PM 24.1 °F 13.7 °F 19.0 °F 81% 30.33 in 10.0 mi North 10.4 mph - N/A   Overcast
8:55 PM 23.0 °F 13.1 °F 19.0 °F 85% 30.34 in 10.0 mi North 9.2 mph - N/A   Overcast
9:55 PM 23.0 °F 13.1 °F 18.0 °F 81% 30.33 in 10.0 mi North 9.2 mph - N/A   Overcast
10:55 PM 23.0 °F 13.1 °F 17.1 °F 78% 30.33 in 10.0 mi North 9.2 mph - N/A   Overcast
11:55 PM 23.0 °F 15.8 °F 17.1 °F 78% 30.34 in 10.0 mi NNW 5.8 mph - N/A   Overcast